GW0118 Weather Reports


Display with metric or nautical units.
time (UTC)temp
F
wind
direction
speed
MPH
gust
MPH
rain 1hr
in
rain 24hr
in
rain mn
in
humidity
%
barometer
mb
20260902090127 76 0 0.0 1.0 0.00 0.00 0.00 55 1025.8
20260902084604 74 44 0.0 1.0 0.00 0.00 0.00 62 1025.7
20260902083110 71 0 0.0 1.0 0.00 0.00 0.00 65 1025.5
20260902081608 68 0 1.0 3.0 0.00 0.00 0.00 68 1025.6
20260902080110 66 51 1.0 4.0 0.00 0.00 0.00 70 1025.5
20260902074601 63 47 2.0 4.0 0.00 0.00 0.00 71 1025.4
20260902073101 61 80 2.0 2.0 0.00 0.00 0.00 73 1025.5
20260902071605 60 56 1.0 3.0 0.00 0.00 0.00 73 1025.3
20260902070109 59 0 1.0 3.0 0.00 0.00 0.00 72 1025.2
20260902064607 58 0 0.0 0.0 0.00 0.00 0.00 72 1025.1
20260902063102 56 0 0.0 1.0 0.00 0.00 0.00 75 1025.0
20260902061623 56 98 0.0 0.0 0.00 0.00 0.00 74 1024.9
20260902060106 55 0 0.0 0.0 0.00 0.00 0.00 76 1024.9
20260902054605 55 0 0.0 1.0 0.00 0.00 0.00 77 1024.8
20260902053105 55 0 0.0 1.0 0.00 0.00 0.00 77 1024.8
20260902051603 55 79 0.0 2.0 0.00 0.00 0.00 76 1024.6
20260902050107 55 73 0.0 2.0 0.00 0.00 0.00 76 1024.5
20260902044610 55 0 0.0 0.0 0.00 0.00 0.00 74 1024.4
20260902043104 55 0 0.0 1.0 0.00 0.00 0.00 74 1024.2
20260902041608 55 0 0.0 1.0 0.00 0.00 0.00 73 1024.3
20260902040104 55 104 0.0 2.0 0.00 0.00 0.00 74 1024.2
20260902034602 56 0 0.0 1.0 0.00 0.00 0.00 72 1024.2
20260902033113 57 0 0.0 1.0 0.00 0.00 0.00 70 1024.4
20260902031602 57 0 0.0 1.0 0.00 0.00 0.00 69 1024.2
20260902030118 57 0 0.0 0.0 0.00 0.00 0.00 69 1024.1
20260902024559 58 0 0.0 3.0 0.00 0.00 0.00 70 1024.0
20260902023114 58 64 0.0 2.0 0.00 0.00 0.00 69 1024.0
20260902021619 58 0 0.0 1.0 0.00 0.00 0.00 65 1023.9
20260902020103 59 0 0.0 1.0 0.00 0.00 0.00 66 1024.0
20260902014600 59 96 1.0 3.0 0.00 0.00 0.00 66 1024.1
20260902013100 60 0 0.0 0.0 0.00 0.00 0.00 61 1024.0
20260902011605 60 0 0.0 0.0 0.00 0.00 0.00 60 1023.9
20260902004609 60 0 0.0 1.0 0.00 0.00 0.00 60 1024.2
20260902003104 61 9 0.0 2.0 0.00 0.00 0.00 56 1024.2
20260902001605 62 0 0.0 0.0 0.00 0.00 0.00 56 1024.1
20260902000106 63 0 0.0 1.0 0.00 0.00 0.00 54 1024.2
20260901234616 63 0 0.0 1.0 0.00 0.00 0.00 51 1024.1
20260901233105 63 0 0.0 3.0 0.00 0.00 0.00 51 1024.2
20260901231603 63 120 0.0 1.0 0.00 0.00 0.00 50 1024.3
20260901230139 64 359 0.0 1.0 0.00 0.00 0.00 48 1024.2
20260901224605 65 0 0.0 0.0 0.00 0.00 0.00 47 1024.0
20260901223119 66 0 0.0 1.0 0.00 0.00 0.00 46 1023.7
20260901221600 66 0 0.0 1.0 0.00 0.00 0.00 45 1023.6
20260901220108 66 0 0.0 1.0 0.00 0.00 0.00 44 1023.6
20260901214606 66 119 1.0 3.0 0.00 0.00 0.00 44 1023.7
20260901213107 67 57 0.0 5.0 0.00 0.00 0.00 43 1023.6
20260901211603 68 65 3.0 4.0 0.00 0.00 0.00 42 1023.4
20260901210105 70 0 0.0 2.0 0.00 0.00 0.00 41 1023.4
20260901204606 71 0 0.0 6.0 0.00 0.00 0.00 39 1023.3
20260901203110 71 106 2.0 5.0 0.00 0.00 0.00 39 1023.0
20260901201612 73 0 0.0 0.0 0.00 0.00 0.00 39 1022.7
20260901200108 75 0 0.0 0.0 0.00 0.00 0.00 34 1022.6
20260901194608 76 147 0.0 1.0 0.00 0.00 0.00 33 1022.3
20260901193106 78 214 0.0 4.0 0.00 0.00 0.00 31 1022.0
20260901191605 79 243 1.0 3.0 0.00 0.00 0.00 31 1021.8
20260901190110 80 184 0.0 4.0 0.00 0.00 0.00 30 1021.6
20260901184601 81 235 1.0 5.0 0.00 0.00 0.00 29 1021.5
20260901183110 83 265 1.0 5.0 0.00 0.00 0.00 27 1021.3
20260901181605 83 248 3.0 7.0 0.00 0.00 0.00 26 1021.4
20260901180107 83 240 3.0 11.0 0.00 0.00 0.00 26 1021.4
20260901174604 83 347 6.0 12.0 0.00 0.00 0.00 25 1021.5
20260901173112 84 298 8.0 13.0 0.00 0.00 0.00 25 1021.4
20260901171620 84 275 6.0 15.0 0.00 0.00 0.00 25 1021.3
20260901170108 85 265 9.0 21.0 0.00 0.00 0.00 26 1021.2
20260901164635 86 257 8.0 16.0 0.00 0.00 0.00 26 1021.1
20260901163103 86 277 9.0 15.0 0.00 0.00 0.00 27 1021.1
20260901161608 87 264 8.0 17.0 0.00 0.00 0.00 26 1021.1
20260901160106 87 270 6.0 20.0 0.00 0.00 0.00 26 1021.0
20260901154605 86 288 9.0 17.0 0.00 0.00 0.00 28 1021.0
20260901153103 86 262 10.0 18.0 0.00 0.00 0.00 28 1021.1
20260901151605 86 247 5.0 17.0 0.00 0.00 0.00 29 1021.1
20260901150108 87 202 4.0 15.0 0.00 0.00 0.00 28 1021.1
20260901144606 86 267 6.0 14.0 0.00 0.00 0.00 30 1021.3
20260901143106 86 277 7.0 17.0 0.00 0.00 0.00 28 1021.4
20260901141610 86 199 8.0 18.0 0.00 0.00 0.00 29 1021.4
20260901140105 85 250 7.0 18.0 0.00 0.00 0.00 31 1021.5
20260901134604 85 199 11.0 17.0 0.00 0.00 0.00 31 1021.5
20260901133103 85 276 9.0 18.0 0.00 0.00 0.00 30 1021.7
20260901131608 85 246 7.0 17.0 0.00 0.00 0.00 30 1022.0
20260901124604 84 302 10.0 16.0 0.00 0.00 0.00 33 1021.9
20260901123102 83 186 10.0 18.0 0.00 0.00 0.00 34 1022.0
20260901121613 84 272 5.0 14.0 0.00 0.00 0.00 34 1022.2
20260901120124 82 107 4.0 14.0 0.00 0.00 0.00 41 1022.4
20260901114605 82 221 5.0 14.0 0.00 0.00 0.00 39 1022.6
20260901113105 82 268 4.0 15.0 0.00 0.00 0.00 40 1022.6
20260901111613 80 211 5.0 11.0 0.00 0.00 0.00 43 1022.8
20260901110106 80 285 5.0 11.0 0.00 0.00 0.00 44 1022.9
20260901104602 79 260 5.0 9.0 0.00 0.00 0.00 46 1023.1
20260901103124 78 229 3.0 10.0 0.00 0.00 0.00 47 1023.1
20260901101605 76 229 4.0 11.0 0.00 0.00 0.00 53 1023.2
20260901100107 76 244 3.0 9.0 0.00 0.00 0.00 54 1023.3
20260901094605 75 190 3.0 8.0 0.00 0.00 0.00 55 1023.4
20260901093132 73 214 4.0 9.0 0.00 0.00 0.00 58 1023.3
20260901091619 73 234 3.0 9.0 0.00 0.00 0.00 60 1023.3